Location: Dos Palmas
(32.4468°N, 116.8732°W)
Time: 02:19:29
(UTC+00:00)

Resurs 01 Rocket - Pass Details

Date: 20 June 2021
Orbit: 635 x 643 km, 97.9° (Epoch: 27 July)

Event Time Altitude Azimuth Distance (km) Brightness Sun altitude
Exits shadow 04:44:07 28° 183° (S) 1,188 2.6 -18.8°
Maximum altitude 04:46:21 67° 259° (W) 688 1.8 -19.1°
Drops below altitude 10° 04:50:44 10° 342° (NNW) 2,024 5.1 -19.8°
Sets 04:52:57 0° 345° (NNW) 2,936 6.1 -20.1°
